Location: Baia Mare
(47.6567°N, 23.5850°E)
Time: 10:00:05
(UTC+03:00)

ISS - Pass Details

Date: 29 October 2018
Orbit: 403 x 408 km, 51.6° (Epoch: 21 October)

Event Time Altitude Azimuth Distance (km) Brightness Sun altitude
Exits shadow 06:06:47 - 231° (SW) 1,685 -1.1 -10.3°
Reaches altitude 10° 06:07:21 10° 230° (SW) 1,456 -1.4 -10.2°
Maximum altitude 06:10:34 59° 150° (SSE) 474 -3.3 -9.7°
Drops below altitude 10° 06:13:48 10° 71° (ENE) 1,466 0.1 -9.2°
Sets 06:15:54 0° 67° (ENE) 2,330 1.1 -8.8°
